Battle Mountain, Nevada, United States (89820)
Lat: 40.64N, Lon: 116.93W
Wx Zone: NVZ036
Local Info
Past Weather Observations for Monday, September 8, 2014

NOTE: This archive is for the closest National Weather Service station to Battle Mountain. Information may differ from the station used for current weather conditions.

Click here for Long-term Archive

Time Weather Temperature Dewpoint Humidity Pressure Winds Precip Visibility
23:56
Clear
63°F / 17°C 39°F / 4°C 42% 29.95 in
(1014 mb)
S 9.2 mph
(S 15 kph)
- 10SM
22:56
Clear
64°F / 18°C 39°F / 4°C 40% 29.95 in
(1014 mb)
SSE 8.1 mph
(SSE 13 kph)
- 10SM
21:56
Clear
70°F / 21°C 37°F / 3°C 31% 29.95 in
(1014 mb)
SSE 13.8 mph
(SSE 22 kph)
- 10SM
20:56
Clear
64°F / 18°C 41°F / 5°C 43% 29.92 in
(1013 mb)
SSW 12.7 mph
(SSW 20 kph)
- 10SM
19:56
Clear
66°F / 19°C 43°F / 6°C 43% 29.92 in
(1013 mb)
Variable 5.8 mph
(Variable 9 kph)
- 10SM
18:56
Clear
64°F / 18°C 46°F / 8°C 52% 29.89 in
(1012 mb)
Variable 4.6 mph
(Variable 7 kph)
0.00 in
(0.00 mm)
10SM
18:13
Partly Cloudy
68°F / 20°C 46°F / 8°C 46% 29.89 in
(1012 mb)
ESE 5.8 mph
(ESE 9 kph)
0.00 in
(0.00 mm)
10SM
17:56
Mostly Cloudy
Thunder Storms
70°F / 21°C 45°F / 7°C 40% 29.92 in
(1013 mb)
Variable 3.5 mph
(Variable 6 kph)
0.00 in
(0.00 mm)
7SM
16:56
Mostly Cloudy
79°F / 26°C 34°F / 1°C 20% 29.89 in
(1012 mb)
SSW 12.7 mph
(SSW 20 kph)
- 10SM
15:56
Clear
82°F / 28°C 30°F / -1°C 15% 29.89 in
(1012 mb)
SW 15 mph
(SW 24 kph)
- 10SM
14:56
Clear
82°F / 28°C 36°F / 2°C 19% 29.89 in
(1012 mb)
SSW 10.4 mph
(SSW 17 kph)
- 10SM
12:56
Overcast
79°F / 26°C 34°F / 1°C 20% 29.95 in
(1014 mb)
SSW 11.5 mph
(SSW 19 kph)
- 10SM
11:56
Overcast
81°F / 27°C 36°F / 2°C 20% 29.98 in
(1015 mb)
W 9.2 mph
(W 15 kph)
- 10SM
10:56
Mostly Cloudy
75°F / 24°C 39°F / 4°C 27% 29.98 in
(1015 mb)
WNW 5.8 mph
(WNW 9 kph)
- 10SM
09:56
Mostly Cloudy
75°F / 24°C 36°F / 2°C 24% 29.98 in
(1015 mb)
W 5.8 mph
(W 9 kph)
- 10SM
08:56
Partly Cloudy
75°F / 24°C 39°F / 4°C 27% 30.01 in
(1016 mb)
SSW 3.5 mph
(SSW 6 kph)
- 10SM
07:56
Partly Cloudy
72°F / 22°C 39°F / 4°C 31% 29.98 in
(1015 mb)
NW 6.9 mph
(NW 11 kph)
0.00 in
(0.00 mm)
10SM
06:56
Partly Cloudy
70°F / 21°C 37°F / 3°C 31% 29.98 in
(1015 mb)
Calm - 10SM
05:56
Mostly Cloudy
72°F / 22°C 36°F / 2°C 27% 29.98 in
(1015 mb)
W 18.4 mph
(W 30 kph)
- 7SM
04:56
Clear
57°F / 14°C 25°F / -4°C 29% 29.98 in
(1015 mb)
SE 9.2 mph
(SE 15 kph)
- 10SM
03:56
Clear
55°F / 13°C 21°F / -6°C 26% 29.98 in
(1015 mb)
Calm - 10SM
02:56
Clear
52°F / 11°C 19°F / -7°C 28% 29.98 in
(1015 mb)
S 5.8 mph
(S 9 kph)
- 10SM
01:56
Clear
48°F / 9°C 19°F / -7°C 32% 29.98 in
(1015 mb)
Variable 3.5 mph
(Variable 6 kph)
- 10SM
00:56
Partly Cloudy
54°F / 12°C 19°F / -7°C 26% 29.95 in
(1014 mb)
Calm - 10SM
Time Weather Temperature Dewpoint Humidity Pressure Winds Precip Visibility


Weather for websites

WeatherForYou.com, LLC is not responsible for any damages or problems caused by this service. Current weather conditions are obtained from the closest station including government and personal stations which may have varying degrees of accuracy. Weather forecasts are derived from the NOAA NDFD. Like all things, this site belongs to Jesus Christ... He just trusts me to maintain it. If you have any questions or comments email webmaster@weatherforyou.com

Copyright © 2014, WeatherForYou.com LLC. All rights reserved.